[[{"header":{"parameterUnit":"m.s-1","parameterCategory":2,"la1":30.2991,"la2":30.254,"lo1":-89.0895,"lo2":-89.0444,"dy":0.0017,"dx":0.0017,"nx":28,"ny":28,"refTime":"2025-03-31T09:00:00:Z","depth":"0","parameterNumber":2,"parameterNumberName":"U-component_of_CURRENTS"},"data":[0,0,0,0,0,0,0,0,0,0,0,0,0,0,0,0,0,0,0,0,0,0,0,0,0,0,0,0,0,0,0,0,0,0,0,0,0,0,0,0,0,0,0,0,0,0,0,0,0,0,0,0,0,0,0,0,0,0,-0.1967,-0.1968,0,-0.2049,-0.2049,-0.2049,-0.2013,-0.2012,-0.2011,-0.201,-0.1967,-0.1967,-0.1967,0,0,0,0,0,0,0,0,0,0,0,0,0,-0.1752,-0.1755,-0.1967,-0.1969,-0.1971,-0.2049,-0.2049,-0.2049,-0.2013,-0.2012,-0.201,-0.2009,-0.1967,-0.1967,-0.1967,0,0,0,0,0,0,0,0,0,0,0,0,0,-0.1831,-0.1756,-0.1966,-0.197,-0.1971,-0.2049,-0.2049,-0.2049,-0.2013,-0.2012,-0.201,-0.2009,-0.1967,-0.1967,-0.1967,-0.1998,0,0,-0.1966,-0.1966,0,0,0,0,0,0,0,0,-0.1826,-0.1837,-0.1967,-0.197,-0.1972,-0.2028,-0.1958,-0.2029,-0.2014,-0.1987,-0.201,-0.2008,-0.1984,-0.1982,-0.1988,-0.1996,-0.1994,-0.1966,-0.1966,-0.1966,-0.1966,0,0,0,0,0,0,0,-0.1821,-0.1834,-0.1989,-0.197,-0.1973,-0.1958,-0.1967,-0.1971,-0.1983,-0.1989,-0.1989,-0.2015,-0.1982,-0.1989,-0.1987,-0.1994,-0.1966,-0.1966,-0.1966,-0.1966,-0.2024,-0.2026,0,0,0,0,0,0,-0.1836,-0.1829,-0.1986,-0.1992,-0.1905,-0.1964,-0.1973,-0.2003,-0.1986,-0.1986,-0.2016,-0.2013,-0.199,-0.1987,-0.1985,-0.2014,-0.1966,-0.1966,-0.1966,-0.2022,-0.2024,-0.2026,0,0,0,0,0,0,-0.1831,-0.1849,-0.1983,-0.192,-0.1937,-0.1971,-0.2004,-0.2006,-0.2017,-0.201,-0.2004,-0.2027,-0.1989,-0.1986,-0.1994,-0.2012,-0.1966,-0.1966,-0.202,-0.2023,-0.2025,-0.2077,0,0,0,0,0,0,-0.1824,-0.1846,-0.1867,-0.1921,-0.1942,-0.204,-0.2007,-0.2009,-0.204,-0.2036,-0.2017,-0.2012,-0.1987,-0.1995,-0.1994,-0.2011,-0.1966,-0.2018,-0.2022,-0.2024,-0.2073,-0.2081,-0.2087,0,0,0,0,0,-0.1816,-0.1868,-0.1867,-0.1886,-0.1971,-0.2043,-0.2051,-0.2061,-0.2042,-0.206,-0.2041,-0.2012,-0.2014,-0.1996,-0.1995,-0.2012,-0.2017,-0.2021,-0.2024,-0.207,-0.2079,-0.2087,0,0,0,0,0,0,-0.1806,-0.1872,-0.1871,-0.1945,-0.1991,-0.204,-0.2073,-0.2073,-0.2075,-0.2066,-0.2034,-0.2029,-0.2042,-0.203,-0.2011,-0.2041,-0.2011,-0.2015,-0.2046,-0.2055,-0.2062,-0.2092,-0.1965,0,0,0,0,0,-0.1811,-0.1853,-0.1915,-0.1974,-0.2002,-0.2033,-0.2062,-0.2071,-0.209,-0.2089,-0.2075,-0.2062,-0.206,-0.2058,-0.2055,-0.2076,-0.2074,-0.2088,-0.2095,-0.2101,-0.2127,-0.2133,-0.2143,-0.2038,-0.2038,-0.2038,0,0,-0.1823,-0.187,-0.1892,-0.1971,-0.2006,-0.2062,-0.2044,-0.2104,-0.2133,-0.2086,-0.2108,-0.2089,-0.2073,-0.2089,-0.2094,-0.2077,-0.2131,-0.2106,-0.2111,-0.2134,-0.2138,-0.2148,-0.2157,-0.2041,-0.204,-0.204,0,0,-0.188,-0.1912,-0.1962,-0.2006,-0.2074,-0.2095,-0.2116,-0.2164,-0.2164,-0.2191,-0.216,-0.2164,-0.2156,-0.2154,-0.2149,-0.2204,-0.2169,-0.2191,-0.225,-0.2255,-0.2263,-0.2271,-0.2283,-0.2291,-0.2193,-0.2193,-0.2193,0,-0.1896,-0.1963,-0.199,-0.2056,-0.2094,-0.2113,-0.2171,-0.2191,-0.2227,-0.2232,-0.2205,-0.2213,-0.2195,-0.2223,-0.2234,-0.2221,-0.2214,-0.2211,-0.2263,-0.2271,-0.2277,-0.2288,-0.2296,-0.2196,-0.2196,-0.2196,-0.2195,0,-0.1978,-0.2036,-0.208,-0.215,-0.2191,-0.2253,-0.2288,-0.2309,-0.2302,-0.2312,-0.2332,-0.2314,-0.2315,-0.2309,-0.2285,-0.2327,-0.2304,-0.2269,-0.2238,-0.2291,-0.2299,-0.2306,-0.2201,-0.2199,-0.2199,-0.2198,0,0,-0.2012,-0.2113,-0.2124,-0.2163,-0.2241,-0.2285,-0.2335,-0.2382,-0.2405,-0.2418,-0.2445,-0.2448,-0.2428,-0.2426,-0.2397,-0.2409,-0.2444,-0.2361,-0.236,-0.2369,-0.2457,-0.2455,-0.2462,-0.2403,-0.2404,-0.2406,-0.2443,0,-0.2068,-0.2174,-0.2208,-0.2302,-0.2363,-0.2385,-0.2425,-0.2462,-0.247,-0.2499,-0.2496,-0.2508,-0.2475,-0.2465,-0.2478,-0.2446,-0.2467,-0.2438,-0.241,-0.2411,-0.2397,-0.2472,-0.229,-0.231,-0.2451,-0.2452,-0.2453,0,-0.2134,-0.2195,-0.2284,-0.2367,-0.2392,-0.2438,-0.2486,-0.2524,-0.2566,-0.2569,-0.2591,-0.2581,-0.261,-0.2563,-0.2572,-0.2546,-0.2521,-0.2502,-0.2502,-0.2493,-0.2423,-0.2281,-0.2318,-0.2181,-0.2464,-0.2463,-0.2463,0,-0.2134,-0.2249,-0.2305,-0.234,-0.2435,-0.2462,-0.2495,-0.2541,-0.257,-0.2613,-0.263,-0.2657,-0.2656,-0.2649,-0.2609,-0.2585,-0.2612,-0.2566,-0.2555,-0.2553,-0.2395,-0.2378,-0.2295,-0.2595,-0.2595,-0.2594,-0.2594,0,-0.2186,-0.2245,-0.2307,-0.2351,-0.241,-0.2464,-0.2519,-0.2552,-0.2603,-0.264,-0.2658,-0.2684,-0.2673,-0.2678,-0.2646,-0.2632,-0.2639,-0.26,-0.2575,-0.241,-0.2394,-0.2265,-0.2263,-0.2596,-0.2595,-0.2595,-0.2595,0,-0.2205,-0.2248,-0.2327,-0.2401,-0.2424,-0.246,-0.2535,-0.2577,-0.2611,-0.2661,-0.2676,-0.2709,-0.271,-0.2705,-0.2689,-0.2671,-0.2591,-0.2649,-0.2468,-0.2424,-0.2307,-0.2316,-0.2348,-0.2295,-0.2664,-0.2664,-0.2664,0,-0.2231,-0.2271,-0.234,-0.2376,-0.2416,-0.2474,-0.252,-0.2575,-0.2615,-0.2668,-0.2692,-0.2716,-0.2709,-0.271,-0.2667,-0.2644,-0.2578,-0.2498,-0.2443,-0.2312,-0.2303,-0.2329,-0.2283,-0.2243,-0.224,-0.2237,-0.2235,0,-0.2273,-0.2281,-0.2319,-0.2376,-0.2429,-0.2491,-0.2551,-0.2576,-0.263,-0.2651,-0.2657,-0.2652,-0.2651,-0.2542,-0.254,-0.2501,-0.2387,-0.245,-0.233,-0.2015,-0.2019,-0.1947,-0.222,-0.2212,-0.2214,-0.2216,-0.2217,-0.2218,-0.2273,-0.2284,-0.2304,-0.2347,-0.2424,-0.2469,-0.2467,-0.2509,-0.252,-0.2479,-0.2565,-0.2467,-0.2394,-0.2353,-0.2312,-0.2103,-0.2268,-0.2007,-0.2045,-0.2096,-0.2008,-0.227,-0.223,-0.2232,-0.2234,-0.2236,-0.2238,0,-0.224,-0.2239,-0.2282,-0.2316,-0.237,-0.242,-0.2457,-0.24,-0.2342,-0.2305,-0.2268,-0.213,-0.1999,-0.1902,-0.1737,-0.1663,-0.1624,-0.1623,-0.1536,-0.1523,-0.1715,-0.1649,-0.1458,-0.1459,-0.1459,-0.1459,-0.1459,-0.1459,-0.2208,-0.2211,-0.2203,-0.2224,-0.2269,-0.2265,-0.225,-0.2153,-0.2071,-0.1867,-0.1738,-0.1733,-0.1617,-0.1548,-0.1317,-0.1263,-0.1205,-0.1231,-0.1315,-0.1322,-0.1356,-0.1389,-0.1319,-0.1063,-0.1063,-0.0985,-0.0984,-0.0984]},{"header":{"parameterUnit":"m.s-1","parameterCategory":2,"la1":30.2991,"la2":30.254,"lo1":-89.0895,"lo2":-89.0444,"dy":0.0017,"dx":0.0017,"nx":28,"ny":28,"refTime":"2025-03-31T09:00:00:Z","depth":"0","parameterNumber":3,"parameterNumberName":"V-component_of_CURRENTS"},"data":[0,0,0,0,0,0,0,0,0,0,0,0,0,0,0,0,0,0,0,0,0,0,0,0,0,0,0,0,0,0,0,0,0,0,0,0,0,0,0,0,0,0,0,0,0,0,0,0,0,0,0,0,0,0,0,0,0,0,-0.089,-0.0891,0,-0.087,-0.0869,-0.0868,-0.0823,-0.0823,-0.0823,-0.0823,-0.0714,-0.0712,-0.0709,0,0,0,0,0,0,0,0,0,0,0,0,0,-0.0698,-0.0702,-0.089,-0.0891,-0.0891,-0.087,-0.0869,-0.0868,-0.0823,-0.0823,-0.0823,-0.0823,-0.0715,-0.0712,-0.0709,0,0,0,0,0,0,0,0,0,0,0,0,0,-0.0731,-0.0703,-0.089,-0.0873,-0.0872,-0.087,-0.0869,-0.0867,-0.0823,-0.0823,-0.0823,-0.0823,-0.0716,-0.0712,-0.0708,-0.0684,0,0,-0.0695,-0.0693,0,0,0,0,0,0,0,0,-0.073,-0.0737,-0.0875,-0.0875,-0.0874,-0.0857,-0.0762,-0.0805,-0.0823,-0.0832,-0.0823,-0.0822,-0.076,-0.0752,-0.0736,-0.0678,-0.0674,-0.0695,-0.0692,-0.069,-0.0689,0,0,0,0,0,0,0,-0.0728,-0.0737,-0.0872,-0.0876,-0.0875,-0.0802,-0.0807,-0.0768,-0.0788,-0.0831,-0.083,-0.0843,-0.0758,-0.0741,-0.0734,-0.0672,-0.0695,-0.0691,-0.0688,-0.0687,-0.0574,-0.0574,0,0,0,0,0,0,-0.076,-0.0736,-0.0873,-0.0873,-0.0811,-0.0807,-0.0812,-0.0855,-0.079,-0.0783,-0.0843,-0.0841,-0.0748,-0.0739,-0.073,-0.0684,-0.069,-0.0686,-0.0684,-0.0574,-0.0574,-0.0573,0,0,0,0,0,0,-0.0757,-0.0774,-0.0874,-0.0809,-0.0818,-0.0813,-0.0859,-0.0855,-0.0841,-0.0802,-0.0791,-0.0836,-0.0748,-0.0735,-0.0688,-0.068,-0.0684,-0.0681,-0.0575,-0.0574,-0.0574,-0.0602,0,0,0,0,0,0,-0.0752,-0.0773,-0.0804,-0.0813,-0.0823,-0.0875,-0.086,-0.0855,-0.0854,-0.0851,-0.0793,-0.0782,-0.0747,-0.0695,-0.0684,-0.0675,-0.0677,-0.0576,-0.0575,-0.0574,-0.0602,-0.0602,-0.0603,0,0,0,0,0,-0.0745,-0.0802,-0.0807,-0.0823,-0.0872,-0.0876,-0.0872,-0.0859,-0.0854,-0.0846,-0.0803,-0.0784,-0.0682,-0.0691,-0.0678,-0.0668,-0.0576,-0.0575,-0.0574,-0.0601,-0.0602,-0.0603,0,0,0,0,0,0,-0.0727,-0.0804,-0.0809,-0.0884,-0.0879,-0.0872,-0.0879,-0.0865,-0.0825,-0.0821,-0.0774,-0.076,-0.0715,-0.0689,-0.07,-0.0633,-0.0628,-0.0624,-0.0653,-0.0653,-0.0654,-0.0665,-0.0674,0,0,0,0,0,-0.0744,-0.0811,-0.0836,-0.0889,-0.0898,-0.0884,-0.0884,-0.0872,-0.0849,-0.0832,-0.0791,-0.0746,-0.0701,-0.0676,-0.0633,-0.0596,-0.0578,-0.0582,-0.0583,-0.0584,-0.0584,-0.0543,-0.054,-0.057,-0.057,-0.057,0,0,-0.0751,-0.0802,-0.0838,-0.0889,-0.0889,-0.0889,-0.0882,-0.0889,-0.0871,-0.0826,-0.0784,-0.0745,-0.0691,-0.0646,-0.0625,-0.0623,-0.057,-0.0583,-0.0584,-0.0584,-0.0542,-0.0539,-0.0536,-0.0569,-0.057,-0.057,0,0,-0.0781,-0.0844,-0.0892,-0.0894,-0.0911,-0.0901,-0.0907,-0.0894,-0.0874,-0.0835,-0.0795,-0.0754,-0.0688,-0.0646,-0.0618,-0.0598,-0.0574,-0.0585,-0.0596,-0.0556,-0.0553,-0.055,-0.0543,-0.054,-0.0586,-0.0587,-0.0587,0,-0.0775,-0.0849,-0.0893,-0.0914,-0.0914,-0.091,-0.0909,-0.089,-0.0853,-0.0831,-0.0827,-0.0728,-0.0689,-0.0628,-0.062,-0.06,-0.0582,-0.0598,-0.0557,-0.0554,-0.0551,-0.0544,-0.054,-0.0588,-0.0588,-0.0587,-0.0587,0,-0.0822,-0.0863,-0.0888,-0.0921,-0.0918,-0.0925,-0.091,-0.089,-0.0871,-0.0844,-0.0788,-0.0735,-0.0678,-0.066,-0.0632,-0.0586,-0.0584,-0.0563,-0.0559,-0.055,-0.0543,-0.0538,-0.059,-0.0589,-0.0589,-0.0588,0,0,-0.0847,-0.0909,-0.0913,-0.0915,-0.0921,-0.0922,-0.09,-0.0873,-0.0856,-0.0816,-0.0782,-0.0714,-0.0694,-0.0661,-0.0622,-0.0591,-0.0562,-0.0571,-0.0568,-0.0571,-0.0493,-0.0456,-0.0447,-0.053,-0.0528,-0.0527,-0.0505,0,-0.0854,-0.0902,-0.0921,-0.0921,-0.0934,-0.0915,-0.0893,-0.0864,-0.0837,-0.0803,-0.0757,-0.0713,-0.0692,-0.0666,-0.063,-0.0573,-0.0547,-0.0571,-0.0495,-0.0493,-0.0466,-0.0438,-0.0361,-0.033,-0.05,-0.05,-0.0499,0,-0.0888,-0.0913,-0.0933,-0.0928,-0.0929,-0.0918,-0.0886,-0.0863,-0.0819,-0.0796,-0.0755,-0.072,-0.0668,-0.0655,-0.057,-0.0585,-0.0542,-0.0508,-0.0505,-0.0454,-0.0445,-0.0361,-0.0315,-0.0181,-0.0491,-0.0492,-0.0492,0,-0.0902,-0.0917,-0.0936,-0.0936,-0.093,-0.0916,-0.0898,-0.0861,-0.0845,-0.0796,-0.0782,-0.0716,-0.0686,-0.0621,-0.0562,-0.0557,-0.0479,-0.0462,-0.0393,-0.0392,-0.0302,-0.0294,-0.0119,-0.0398,-0.0399,-0.0399,-0.0399,0,-0.0925,-0.0935,-0.0945,-0.0957,-0.095,-0.0931,-0.0916,-0.0889,-0.0854,-0.0846,-0.0785,-0.0768,-0.0673,-0.0622,-0.0564,-0.047,-0.048,-0.0389,-0.0371,-0.0312,-0.0305,-0.0166,-0.0131,-0.0398,-0.0398,-0.0398,-0.0398,0,-0.0958,-0.0971,-0.0987,-0.0977,-0.0971,-0.0968,-0.0944,-0.094,-0.0895,-0.0884,-0.0872,-0.0801,-0.0733,-0.065,-0.0548,-0.0471,-0.0304,-0.0354,-0.0311,-0.0286,-0.0078,-0.005,0.0105,0.0162,-0.026,-0.0259,-0.0258,0,-0.0989,-0.1007,-0.1014,-0.1027,-0.1028,-0.1018,-0.1021,-0.0973,-0.0972,-0.0917,-0.0922,-0.0841,-0.0805,-0.0641,-0.0476,-0.0351,-0.0266,-0.0195,-0.0157,-0.0043,0.0002,0.0018,0.0055,-0.0064,-0.0062,-0.006,-0.0058,0,-0.1026,-0.1035,-0.1049,-0.1088,-0.1098,-0.1101,-0.1097,-0.11,-0.1056,-0.1041,-0.102,-0.098,-0.0785,-0.0592,-0.0387,-0.0289,-0.0073,-0.0147,-0.0018,0.0185,0.0204,0.0259,-0.0136,-0.0039,-0.0041,-0.0043,-0.0044,-0.0044,-0.1047,-0.1072,-0.1107,-0.114,-0.1168,-0.1197,-0.1211,-0.1199,-0.12,-0.117,-0.1119,-0.1005,-0.0659,-0.035,-0.0238,0.013,0.0055,0.0248,0.0272,0.0275,0.0355,-0.0018,0.0096,0.0095,0.0094,0.0093,0.0093,0,-0.107,-0.1114,-0.1157,-0.1209,-0.1275,-0.1263,-0.1279,-0.1284,-0.1301,-0.1201,-0.1169,-0.0759,-0.0442,-0.0092,0.038,0.0548,0.0583,0.0634,0.0699,0.0714,0.0415,0.0452,0.0637,0.0637,0.0637,0.0636,0.0636,0.0636,-0.1083,-0.115,-0.1182,-0.1299,-0.135,-0.1419,-0.1437,-0.1415,-0.1329,-0.1139,-0.0882,-0.0688,-0.0158,0.0497,0.0912,0.0953,0.1062,0.1057,0.1071,0.0903,0.087,0.0838,0.0886,0.1159,0.1159,0.1395,0.1397,0.1399]}],[{"header":{"parameterUnit":"m.s-1","parameterCategory":2,"la1":30.2991,"la2":30.254,"lo1":-89.0895,"lo2":-89.0444,"dy":0.0017,"dx":0.0017,"nx":28,"ny":28,"refTime":"2025-03-31T09:00:00:Z","depth":"2","parameterNumber":2,"parameterNumberName":"U-component_of_CURRENTS"},"data":[0,0,0,0,0,0,0,0,0,0,0,0,0,0,0,0,0,0,0,0,0,0,0,0,0,0,0,0,0,0,0,0,0,0,0,0,0,0,0,0,0,0,0,0,0,0,0,0,0,0,0,0,0,0,0,0,0,0,-0.0708,-0.0707,0,-0.0701,-0.0701,-0.0702,-0.0724,-0.0724,-0.0725,-0.0725,-0.074,-0.074,-0.074,0,0,0,0,0,0,0,0,0,0,0,0,0,-0.0776,-0.0775,-0.0708,-0.0707,-0.0707,-0.0701,-0.0701,-0.0702,-0.0724,-0.0724,-0.0725,-0.0725,-0.074,-0.074,-0.074,0,0,0,0,0,0,0,0,0,0,0,0,0,-0.0759,-0.0774,-0.0708,-0.0714,-0.0714,-0.0701,-0.0701,-0.0702,-0.0724,-0.0724,-0.0725,-0.0725,-0.074,-0.074,-0.074,-0.0733,0,0,-0.0741,-0.0741,0,0,0,0,0,0,0,0,-0.076,-0.0757,-0.0714,-0.0714,-0.0714,-0.071,-0.0731,-0.0712,-0.0724,-0.0725,-0.0725,-0.0725,-0.0729,-0.073,-0.0733,-0.0733,-0.0734,-0.0741,-0.0741,-0.0741,-0.0741,0,0,0,0,0,0,0,-0.0761,-0.0758,-0.0709,-0.0713,-0.0713,-0.0729,-0.0728,-0.0728,-0.0728,-0.0725,-0.0725,-0.0718,-0.073,-0.0733,-0.0734,-0.0734,-0.0741,-0.0741,-0.0741,-0.0741,-0.0875,-0.0879,0,0,0,0,0,0,-0.0751,-0.0758,-0.0709,-0.0709,-0.0734,-0.0727,-0.0726,-0.0714,-0.0727,-0.0729,-0.0717,-0.0719,-0.0733,-0.0734,-0.0735,-0.0819,-0.0741,-0.0741,-0.0741,-0.0872,-0.0876,-0.088,0,0,0,0,0,0,-0.0753,-0.0747,-0.071,-0.0731,-0.0727,-0.0725,-0.0712,-0.0714,-0.0737,-0.0721,-0.0724,-0.074,-0.0733,-0.0734,-0.0813,-0.0816,-0.0741,-0.0742,-0.0868,-0.0873,-0.0878,-0.0927,0,0,0,0,0,0,-0.0754,-0.0747,-0.0727,-0.073,-0.0725,-0.0721,-0.0712,-0.0713,-0.0728,-0.073,-0.0741,-0.0742,-0.0734,-0.0813,-0.0813,-0.0815,-0.0742,-0.0864,-0.087,-0.0876,-0.0921,-0.0934,-0.0944,0,0,0,0,0,-0.0757,-0.0745,-0.0726,-0.072,-0.07,-0.0721,-0.0722,-0.0725,-0.0729,-0.0747,-0.0798,-0.0743,-0.0852,-0.0818,-0.0816,-0.0817,-0.086,-0.0868,-0.0876,-0.0916,-0.0931,-0.0944,0,0,0,0,0,0,-0.078,-0.0745,-0.0726,-0.0705,-0.0715,-0.0724,-0.073,-0.0737,-0.0786,-0.0801,-0.0797,-0.0804,-0.0869,-0.0858,-0.0819,-0.0884,-0.0842,-0.085,-0.0873,-0.0887,-0.0898,-0.0845,-0.0742,0,0,0,0,0,-0.0767,-0.0741,-0.0731,-0.0718,-0.0722,-0.0729,-0.0733,-0.0747,-0.0786,-0.0806,-0.0819,-0.0852,-0.0895,-0.0907,-0.0937,-0.097,-0.0971,-0.0973,-0.0984,-0.0993,-0.0957,-0.102,-0.1031,-0.0905,-0.0905,-0.0905,0,0,-0.0767,-0.0749,-0.073,-0.0719,-0.0726,-0.0742,-0.0736,-0.0764,-0.0787,-0.08,-0.0852,-0.0894,-0.0922,-0.0977,-0.1,-0.0967,-0.1041,-0.1003,-0.101,-0.0967,-0.1029,-0.104,-0.1051,-0.0911,-0.091,-0.0909,0,0,-0.0785,-0.0749,-0.0742,-0.0747,-0.0756,-0.0765,-0.0779,-0.0804,-0.0824,-0.0884,-0.0915,-0.0968,-0.1014,-0.1034,-0.105,-0.114,-0.111,-0.1158,-0.1148,-0.1212,-0.1221,-0.1229,-0.1278,-0.129,-0.1148,-0.1149,-0.1149,0,-0.0792,-0.0774,-0.0752,-0.0762,-0.0768,-0.078,-0.0805,-0.0824,-0.0878,-0.0908,-0.0911,-0.1018,-0.1026,-0.1096,-0.1126,-0.1152,-0.1195,-0.1087,-0.1222,-0.123,-0.1237,-0.1284,-0.1296,-0.1152,-0.1151,-0.1151,-0.1151,0,-0.0811,-0.0796,-0.0806,-0.0806,-0.0818,-0.0847,-0.0864,-0.0899,-0.0924,-0.0944,-0.1027,-0.1067,-0.1119,-0.1138,-0.1147,-0.1212,-0.1231,-0.1238,-0.1172,-0.1251,-0.1298,-0.131,-0.1157,-0.1155,-0.1154,-0.1154,0,0,-0.082,-0.0818,-0.0815,-0.0823,-0.0845,-0.0864,-0.0908,-0.0952,-0.0996,-0.103,-0.1091,-0.114,-0.1154,-0.1175,-0.1203,-0.1233,-0.132,-0.125,-0.1252,-0.1269,-0.1474,-0.1425,-0.1433,-0.1371,-0.1373,-0.1374,-0.1497,0,-0.0844,-0.0864,-0.0859,-0.089,-0.0905,-0.0926,-0.0967,-0.1008,-0.1051,-0.1115,-0.1141,-0.1209,-0.1173,-0.1217,-0.1241,-0.1313,-0.135,-0.1285,-0.1417,-0.1419,-0.1342,-0.1443,-0.1235,-0.1321,-0.1508,-0.151,-0.1511,0,-0.0852,-0.0864,-0.0898,-0.093,-0.0942,-0.0976,-0.1047,-0.1081,-0.1158,-0.1197,-0.1245,-0.1276,-0.1319,-0.129,-0.1386,-0.1362,-0.1404,-0.1441,-0.1448,-0.1375,-0.139,-0.127,-0.1334,-0.153,-0.1528,-0.1527,-0.1526,0,-0.0854,-0.0883,-0.0915,-0.0922,-0.097,-0.1012,-0.1047,-0.1117,-0.1157,-0.125,-0.1301,-0.1359,-0.1409,-0.1455,-0.1497,-0.1466,-0.1622,-0.1593,-0.1587,-0.1585,-0.1408,-0.1386,-0.1661,-0.1661,-0.1661,-0.1661,-0.166,0,-0.0857,-0.087,-0.0925,-0.0938,-0.099,-0.1026,-0.1098,-0.1145,-0.1231,-0.13,-0.1337,-0.1413,-0.1457,-0.1541,-0.1556,-0.1612,-0.1673,-0.1585,-0.1614,-0.1426,-0.1406,-0.1572,-0.156,-0.1665,-0.1664,-0.1663,-0.1663,0,-0.0815,-0.0855,-0.0889,-0.0961,-0.0987,-0.1018,-0.1098,-0.1158,-0.124,-0.1337,-0.1367,-0.1478,-0.1588,-0.1636,-0.1745,-0.1694,-0.1751,-0.1762,-0.1529,-0.1526,-0.1649,-0.1639,-0.1738,-0.1737,-0.1737,-0.1736,-0.1736,0,-0.078,-0.0801,-0.0885,-0.0943,-0.0978,-0.1035,-0.1088,-0.1148,-0.1211,-0.1379,-0.1433,-0.1574,-0.1663,-0.1788,-0.174,-0.1765,-0.1822,-0.1579,-0.1442,-0.1639,-0.1659,-0.1649,-0.164,-0.1251,-0.1246,-0.1243,-0.124,0,-0.0718,-0.0769,-0.0816,-0.0939,-0.1008,-0.1025,-0.1106,-0.1149,-0.1251,-0.1349,-0.1511,-0.1602,-0.1701,-0.1629,-0.1642,-0.161,-0.1541,-0.1506,-0.1813,-0.1256,-0.1188,-0.1204,-0.121,-0.1208,-0.1212,-0.1214,-0.1216,-0.1217,-0.0678,-0.0715,-0.0835,-0.0936,-0.1019,-0.1047,-0.1034,-0.1134,-0.1201,-0.1348,-0.1492,-0.1549,-0.1512,-0.1414,-0.138,-0.1305,-0.1407,-0.1276,-0.1284,-0.1296,-0.121,-0.1144,-0.114,-0.1143,-0.1145,-0.1147,-0.1149,0,-0.0694,-0.0746,-0.084,-0.0931,-0.0985,-0.1043,-0.1075,-0.1023,-0.1087,-0.1257,-0.1383,-0.1205,-0.1153,-0.1145,-0.0966,-0.093,-0.0881,-0.0882,-0.0797,-0.0828,-0.0856,-0.0745,-0.0553,-0.0552,-0.0551,-0.055,0,0,-0.0707,-0.0762,-0.0815,-0.0888,-0.0961,-0.0962,-0.0961,-0.0895,-0.0914,-0.0988,-0.1027,-0.1148,-0.1084,-0.0815,-0.0751,-0.0644,-0.0735,-0.0593,-0.106,-0.0991,-0.1018,-0.1059,-0.0921,0,0,0,0,0]},{"header":{"parameterUnit":"m.s-1","parameterCategory":2,"la1":30.2991,"la2":30.254,"lo1":-89.0895,"lo2":-89.0444,"dy":0.0017,"dx":0.0017,"nx":28,"ny":28,"refTime":"2025-03-31T09:00:00:Z","depth":"2","parameterNumber":3,"parameterNumberName":"V-component_of_CURRENTS"},"data":[0,0,0,0,0,0,0,0,0,0,0,0,0,0,0,0,0,0,0,0,0,0,0,0,0,0,0,0,0,0,0,0,0,0,0,0,0,0,0,0,0,0,0,0,0,0,0,0,0,0,0,0,0,0,0,0,0,0,0.0032,0.0032,0,0.0104,0.0105,0.0106,0.0126,0.0126,0.0126,0.0125,0.0145,0.0145,0.0146,0,0,0,0,0,0,0,0,0,0,0,0,0,-0.0056,-0.0055,0.0032,0.0033,0.0034,0.0104,0.0105,0.0106,0.0126,0.0126,0.0125,0.0125,0.0144,0.0145,0.0146,0,0,0,0,0,0,0,0,0,0,0,0,0,-0.0005,-0.0054,0.0031,0.0053,0.0056,0.0104,0.0105,0.0106,0.0126,0.0126,0.0125,0.0125,0.0144,0.0145,0.0146,0.0163,0,0,0.015,0.015,0,0,0,0,0,0,0,0,-0.0008,-0.0002,0.0049,0.0052,0.0055,0.0107,0.0081,0.0123,0.0126,0.0098,0.0125,0.0125,0.0128,0.013,0.0144,0.0164,0.0165,0.015,0.0151,0.0151,0.0152,0,0,0,0,0,0,0,-0.0012,-0.0005,0.0059,0.005,0.0054,0.0071,0.0077,0.009,0.0113,0.0101,0.0103,0.0113,0.0129,0.0143,0.0145,0.0165,0.015,0.0151,0.0152,0.0152,0.0118,0.0117,0,0,0,0,0,0,-0.0019,-0.0008,0.0057,0.0061,0.0023,0.0073,0.008,0.009,0.0114,0.0118,0.0113,0.0113,0.0141,0.0143,0.0145,0.0139,0.0151,0.0152,0.0153,0.012,0.0118,0.0116,0,0,0,0,0,0,-0.0022,-0.0014,0.0054,0.0029,0.0039,0.0074,0.0086,0.0091,0.0089,0.0124,0.0127,0.0103,0.0141,0.0144,0.0108,0.014,0.0153,0.0154,0.0122,0.0119,0.0117,0.0142,0,0,0,0,0,0,-0.0025,-0.0016,-0.0022,0.0028,0.004,0.0074,0.0086,0.0093,0.0098,0.0098,0.0117,0.012,0.0141,0.0105,0.0109,0.0142,0.0155,0.0124,0.0121,0.0118,0.0143,0.0141,0.0139,0,0,0,0,0,-0.0028,-0.0036,-0.0022,-0.0015,0.0034,0.0074,0.0081,0.0104,0.0097,0.0099,0.0078,0.0118,0.009,0.0104,0.0109,0.0144,0.0125,0.0122,0.0118,0.0145,0.0141,0.0139,0,0,0,0,0,0,-0.0068,-0.0033,-0.0017,-0.0012,0.0026,0.0077,0.0072,0.0091,0.0081,0.0063,0.0087,0.0088,0.0071,0.0081,0.0097,0.0116,0.0119,0.0116,0.0138,0.0135,0.0133,0.0149,0.0156,0,0,0,0,0,-0.0081,-0.0088,-0.0032,-0.0031,-0.0018,0.0023,0.0035,0.0055,0.0061,0.0057,0.007,0.0067,0.0065,0.0074,0.0068,0.008,0.009,0.0102,0.01,0.0098,0.0109,0.0114,0.0115,0.0104,0.0104,0.0104,0,0,-0.009,-0.0079,-0.0077,-0.0042,-0.0019,0.001,0.0028,0.0039,0.0063,0.0059,0.0062,0.0049,0.0054,0.006,0.0058,0.0076,0.0105,0.0094,0.0093,0.0105,0.0111,0.0112,0.0114,0.0102,0.0102,0.0103,0,0,-0.0124,-0.0109,-0.0126,-0.0089,-0.006,-0.0026,-0.0027,0.0016,0.0028,0.0028,0.0025,0.0024,0.0025,0.0056,0.0066,0.0044,0.0075,0.0036,0.0069,0.0074,0.0077,0.0079,0.0099,0.0103,0.0057,0.0057,0.0057,0,-0.0135,-0.014,-0.0121,-0.0111,-0.0084,-0.0044,-0.0029,0.0002,0.0027,0.0034,0.0021,0.0027,0.0038,0.0071,0.0062,0.0052,0.0043,0.0091,0.0077,0.0079,0.008,0.0101,0.0105,0.0058,0.0058,0.0058,0.0058,0,-0.0169,-0.0157,-0.0163,-0.0135,-0.0106,-0.0088,-0.003,-0.0016,-0.0006,0.0031,0.0038,0.0046,0.0054,0.007,0.0062,0.0089,0.0075,0.0061,0.0097,0.0084,0.0105,0.0109,0.0059,0.0059,0.0059,0.0059,0,0,-0.0201,-0.0193,-0.0187,-0.0175,-0.0114,-0.0093,-0.0058,-0.0009,0.0004,0.0039,0.0062,0.0085,0.0086,0.0094,0.0103,0.0131,0.0146,0.0099,0.0099,0.0144,0.0152,0.0177,0.0183,0.0114,0.0115,0.0115,0.0165,0,-0.0222,-0.0241,-0.0214,-0.0185,-0.0172,-0.0111,-0.0081,-0.0032,-0.0,0.0031,0.0079,0.0083,0.01,0.0087,0.0123,0.0122,0.0153,0.0134,0.0136,0.0137,0.0181,0.0188,0.0162,0.0205,0.0169,0.017,0.017,0,-0.0248,-0.0251,-0.0267,-0.0218,-0.0208,-0.0186,-0.0137,-0.0103,-0.0033,-0.0017,0.0028,0.0052,0.0109,0.0101,0.0158,0.0131,0.0139,0.0158,0.0159,0.018,0.0169,0.0207,0.0214,0.0176,0.0176,0.0175,0.0175,0,-0.0305,-0.0271,-0.0305,-0.028,-0.0228,-0.0226,-0.0197,-0.0133,-0.0112,-0.0057,-0.0047,0.0029,0.0038,0.0082,0.0119,0.0123,0.0165,0.0179,0.0227,0.0229,0.021,0.021,0.0212,0.0212,0.0212,0.0212,0.0212,0,-0.0333,-0.0333,-0.0341,-0.0343,-0.0345,-0.0292,-0.0289,-0.0246,-0.0197,-0.0176,-0.0095,-0.0067,0.002,0.0063,0.011,0.0178,0.0157,0.0243,0.0245,0.0216,0.0216,0.0187,0.0183,0.0214,0.0213,0.0213,0.0213,0,-0.0385,-0.0397,-0.041,-0.0391,-0.0382,-0.039,-0.0348,-0.034,-0.0298,-0.027,-0.0262,-0.0155,-0.0092,0.0,0.007,0.0154,0.022,0.0236,0.0207,0.0207,0.0295,0.0291,0.0346,0.0347,0.0348,0.0349,0.035,0,-0.041,-0.0446,-0.0466,-0.0483,-0.048,-0.0477,-0.0471,-0.0407,-0.0391,-0.0321,-0.0311,-0.0237,-0.0183,-0.0037,0.0098,0.0215,0.0208,0.0283,0.0314,0.0313,0.031,0.0304,0.0299,0.0298,0.0299,0.0299,0.0299,0,-0.0442,-0.049,-0.0517,-0.057,-0.058,-0.0558,-0.0544,-0.0541,-0.0474,-0.0454,-0.0407,-0.0363,-0.0202,-0.006,0.0102,0.0181,0.0278,0.0297,0.0281,0.0271,0.0273,0.0268,0.0264,0.0301,0.0301,0.0301,0.0301,0.0301,-0.0464,-0.0517,-0.0599,-0.064,-0.0666,-0.0658,-0.0643,-0.0622,-0.0604,-0.058,-0.0491,-0.0403,-0.0205,0.0037,0.0151,0.0284,0.0299,0.0366,0.0363,0.036,0.0348,0.0352,0.0394,0.0394,0.0394,0.0395,0.0395,0,-0.0505,-0.0581,-0.0645,-0.0695,-0.0746,-0.0734,-0.0704,-0.0673,-0.0675,-0.0639,-0.0597,-0.0339,-0.0167,0.0013,0.0209,0.0351,0.0341,0.0391,0.0344,0.0341,0.0339,0.0323,0.0364,0.0364,0.0365,0.0365,0,0,-0.0528,-0.0615,-0.0675,-0.0771,-0.081,-0.0837,-0.0827,-0.0772,-0.0712,-0.068,-0.06,-0.0433,-0.016,0.0009,0.0165,0.0242,0.0257,0.0262,0.0272,0.0192,0.0188,0.0312,0.0285,0,0,0,0,0]}],[{"header":{"parameterUnit":"m.s-1","parameterCategory":2,"la1":30.2991,"la2":30.254,"lo1":-89.0895,"lo2":-89.0444,"dy":0.0017,"dx":0.0017,"nx":28,"ny":28,"refTime":"2025-03-31T09:00:00:Z","depth":"4","parameterNumber":2,"parameterNumberName":"U-component_of_CURRENTS"},"data":[0,0,0,0,0,0,0,0,0,0,0,0,0,0,0,0,0,0,0,0,0,0,0,0,0,0,0,0,0,0,0,0,0,0,0,0,0,0,0,0,0,0,0,0,0,0,0,0,0,0,0,0,0,0,0,0,0,0,-0.0405,-0.0405,0,-0.0386,-0.0386,-0.0385,-0.039,-0.0391,-0.0391,-0.0391,-0.038,-0.0379,-0.0378,0,0,0,0,0,0,0,0,0,0,0,0,0,-0.0433,-0.0432,-0.0405,-0.0405,-0.0405,-0.0386,-0.0386,-0.0385,-0.039,-0.0391,-0.0391,-0.0392,-0.038,-0.0379,-0.0378,0,0,0,0,0,0,0,0,0,0,0,0,0,-0.0418,-0.0432,-0.0405,-0.0405,-0.0405,-0.0386,-0.0386,-0.0385,-0.039,-0.0391,-0.0391,-0.0392,-0.038,-0.0379,-0.0378,-0.036,0,0,-0.0375,-0.0375,0,0,0,0,0,0,0,0,-0.0419,-0.0417,-0.0405,-0.0405,-0.0405,-0.0391,-0.0391,-0.0377,-0.039,-0.0395,-0.0391,-0.0392,-0.0384,-0.0383,-0.0377,-0.036,-0.0359,-0.0375,-0.0374,-0.0374,-0.0374,0,0,0,0,0,0,0,-0.042,-0.0418,-0.0397,-0.0405,-0.0405,-0.0401,-0.04,-0.0388,-0.0387,-0.0395,-0.0395,-0.0393,-0.0384,-0.0378,-0.0377,-0.0359,-0.0375,-0.0374,-0.0373,-0.0373,-0.0345,-0.0345,0,0,0,0,0,0,-0.0422,-0.0418,-0.0398,-0.0397,-0.0414,-0.04,-0.0399,-0.0395,-0.0387,-0.0386,-0.0393,-0.0394,-0.038,-0.0378,-0.0377,-0.0384,-0.0374,-0.0373,-0.0372,-0.0345,-0.0345,-0.0345,0,0,0,0,0,0,-0.0423,-0.0421,-0.0399,-0.0408,-0.0405,-0.0399,-0.0395,-0.0394,-0.0393,-0.0385,-0.0384,-0.0393,-0.038,-0.0378,-0.0369,-0.0382,-0.0372,-0.0372,-0.0345,-0.0345,-0.0345,-0.038,0,0,0,0,0,0,-0.0424,-0.0421,-0.0423,-0.0408,-0.0404,-0.039,-0.0394,-0.0393,-0.0391,-0.0392,-0.0385,-0.0384,-0.038,-0.037,-0.0368,-0.0381,-0.0371,-0.0345,-0.0345,-0.0345,-0.0379,-0.0381,-0.0382,0,0,0,0,0,-0.0425,-0.0424,-0.0423,-0.0421,-0.0406,-0.039,-0.0387,-0.0386,-0.039,-0.0388,-0.0384,-0.0385,-0.0367,-0.0369,-0.0366,-0.038,-0.0345,-0.0345,-0.0345,-0.0378,-0.038,-0.0382,0,0,0,0,0,0,-0.0421,-0.0424,-0.0423,-0.0418,-0.0406,-0.0391,-0.0391,-0.0386,-0.038,-0.0384,-0.0378,-0.0377,-0.0373,-0.0366,-0.0368,-0.0369,-0.0358,-0.0357,-0.0384,-0.0386,-0.0388,-0.0398,-0.037,0,0,0,0,0,-0.0424,-0.0434,-0.0421,-0.0416,-0.0414,-0.0402,-0.0398,-0.0393,-0.0384,-0.0382,-0.0376,-0.0371,-0.0367,-0.0369,-0.0357,-0.0357,-0.0361,-0.0363,-0.0365,-0.0367,-0.0372,-0.0384,-0.0388,-0.0344,-0.0344,-0.0344,0,0,-0.0423,-0.0423,-0.0429,-0.0418,-0.0412,-0.0403,-0.0401,-0.0393,-0.0391,-0.0381,-0.0378,-0.0372,-0.0365,-0.0366,-0.0365,-0.0365,-0.0382,-0.0367,-0.0368,-0.0373,-0.0384,-0.0389,-0.0393,-0.0343,-0.0343,-0.0343,0,0,-0.042,-0.0423,-0.0431,-0.0423,-0.0414,-0.0407,-0.0405,-0.039,-0.0393,-0.0382,-0.0381,-0.0384,-0.0368,-0.0376,-0.0377,-0.038,-0.0386,-0.0376,-0.0403,-0.0415,-0.042,-0.0423,-0.0442,-0.0447,-0.0385,-0.0385,-0.0385,0,-0.0409,-0.0417,-0.0426,-0.0422,-0.0416,-0.0409,-0.0401,-0.0401,-0.0384,-0.0393,-0.0384,-0.0383,-0.0376,-0.0396,-0.0399,-0.0387,-0.0395,-0.0399,-0.042,-0.0424,-0.0427,-0.0445,-0.045,-0.0387,-0.0387,-0.0386,-0.0386,0,-0.0413,-0.0414,-0.0413,-0.0414,-0.0409,-0.0398,-0.0398,-0.0399,-0.0399,-0.0402,-0.0414,-0.0407,-0.0414,-0.0412,-0.0406,-0.0432,-0.043,-0.0417,-0.042,-0.0434,-0.0452,-0.0457,-0.0389,-0.0388,-0.0388,-0.0388,0,0,-0.0383,-0.0411,-0.0411,-0.0409,-0.0403,-0.0394,-0.0404,-0.041,-0.0428,-0.0423,-0.0445,-0.0445,-0.0455,-0.0456,-0.0457,-0.0469,-0.0499,-0.0457,-0.0457,-0.0486,-0.0535,-0.0511,-0.0514,-0.0492,-0.0492,-0.0493,-0.0541,0,-0.0371,-0.0378,-0.0396,-0.0386,-0.0379,-0.0388,-0.0401,-0.0413,-0.0426,-0.0446,-0.0463,-0.0477,-0.0471,-0.048,-0.0494,-0.0491,-0.0512,-0.0488,-0.0508,-0.0508,-0.0494,-0.0519,-0.0496,-0.0545,-0.0546,-0.0547,-0.0547,0,-0.036,-0.0365,-0.0366,-0.0379,-0.038,-0.0377,-0.0401,-0.042,-0.0461,-0.0477,-0.0508,-0.0513,-0.0543,-0.0524,-0.0556,-0.0542,-0.0544,-0.0542,-0.0544,-0.0513,-0.0493,-0.0524,-0.0556,-0.0555,-0.0555,-0.0554,-0.0554,0,-0.0334,-0.034,-0.0344,-0.0342,-0.0358,-0.0366,-0.0387,-0.0428,-0.0459,-0.0505,-0.0524,-0.0558,-0.0571,-0.0585,-0.0591,-0.0574,-0.0619,-0.0593,-0.058,-0.0579,-0.0572,-0.0567,-0.0617,-0.0617,-0.0617,-0.0617,-0.0616,0,-0.0306,-0.0303,-0.0331,-0.0327,-0.0326,-0.0359,-0.0387,-0.0415,-0.0477,-0.0508,-0.0547,-0.0556,-0.0583,-0.0607,-0.0611,-0.0621,-0.0642,-0.0594,-0.0591,-0.0585,-0.0581,-0.0576,-0.057,-0.0618,-0.0618,-0.0618,-0.0617,0,-0.027,-0.0293,-0.0283,-0.0306,-0.0309,-0.0316,-0.0375,-0.0402,-0.0475,-0.0513,-0.0528,-0.0566,-0.059,-0.063,-0.0648,-0.0642,-0.0655,-0.0653,-0.0664,-0.0659,-0.0601,-0.0597,-0.0638,-0.0637,-0.0637,-0.0637,-0.0637,0,-0.0243,-0.0246,-0.0262,-0.0248,-0.025,-0.0277,-0.0293,-0.0379,-0.0412,-0.0499,-0.0501,-0.0549,-0.0566,-0.0595,-0.0627,-0.067,-0.0658,-0.0675,-0.0618,-0.0611,-0.0604,-0.0601,-0.0597,-0.0636,-0.0636,-0.0636,-0.0636,0,-0.0188,-0.0212,-0.0217,-0.0192,-0.0186,-0.0201,-0.0239,-0.0266,-0.0366,-0.0434,-0.0463,-0.0494,-0.0526,-0.0552,-0.0611,-0.0626,-0.0668,-0.067,-0.067,-0.0617,-0.0609,-0.0602,-0.0599,-0.0634,-0.0635,-0.0635,-0.0635,0,-0.0137,-0.0145,-0.0158,-0.0127,-0.0114,-0.0108,-0.0153,-0.0196,-0.0254,-0.0374,-0.0366,-0.0435,-0.0488,-0.0529,-0.0568,-0.0607,-0.0586,-0.0567,-0.0571,-0.0573,-0.0534,-0.0513,-0.0516,0,0,0,0,0,-0.0067,-0.0101,-0.0085,-0.0058,-0.0042,-0.0036,-0.0095,-0.0157,-0.0256,-0.0263,-0.0332,-0.0361,-0.0427,-0.0457,-0.0484,-0.0536,-0.0584,-0.0566,-0.0561,-0.0628,-0.0629,-0.0591,0,0,0,0,0,0,-0.0044,-0.005,-0.0074,0.0009,0.0041,0.005,0.0016,-0.006,-0.009,-0.0194,-0.0228,-0.0322,-0.0386,-0.0393,-0.0461,-0.048,-0.0471,-0.0627,-0.0627,-0.0627,-0.0628,-0.0629,-0.059,0,0,0,0,0]},{"header":{"parameterUnit":"m.s-1","parameterCategory":2,"la1":30.2991,"la2":30.254,"lo1":-89.0895,"lo2":-89.0444,"dy":0.0017,"dx":0.0017,"nx":28,"ny":28,"refTime":"2025-03-31T09:00:00:Z","depth":"4","parameterNumber":3,"parameterNumberName":"V-component_of_CURRENTS"},"data":[0,0,0,0,0,0,0,0,0,0,0,0,0,0,0,0,0,0,0,0,0,0,0,0,0,0,0,0,0,0,0,0,0,0,0,0,0,0,0,0,0,0,0,0,0,0,0,0,0,0,0,0,0,0,0,0,0,0,0.0305,0.0305,0,0.0329,0.0329,0.0329,0.033,0.033,0.033,0.033,0.0333,0.0333,0.0333,0,0,0,0,0,0,0,0,0,0,0,0,0,0.0185,0.0188,0.0305,0.0305,0.0306,0.0328,0.0329,0.0329,0.033,0.033,0.033,0.033,0.0333,0.0333,0.0333,0,0,0,0,0,0,0,0,0,0,0,0,0,0.0225,0.0188,0.0305,0.031,0.0311,0.0328,0.0329,0.0329,0.033,0.033,0.033,0.033,0.0333,0.0333,0.0333,0.0339,0,0,0.0334,0.0334,0,0,0,0,0,0,0,0,0.0222,0.0229,0.0309,0.031,0.0311,0.0328,0.0288,0.0332,0.033,0.0321,0.033,0.033,0.033,0.0331,0.0334,0.0339,0.0339,0.0334,0.0335,0.0335,0.0335,0,0,0,0,0,0,0,0.022,0.0227,0.0313,0.0309,0.0311,0.0286,0.0292,0.0296,0.0325,0.0322,0.0323,0.0328,0.033,0.0334,0.0334,0.034,0.0334,0.0335,0.0335,0.0335,0.0344,0.0344,0,0,0,0,0,0,0.0225,0.0226,0.0312,0.0314,0.0267,0.0288,0.0295,0.0321,0.0326,0.0327,0.0328,0.0328,0.0333,0.0334,0.0334,0.0317,0.0335,0.0335,0.0335,0.0344,0.0344,0.0344,0,0,0,0,0,0,0.0222,0.0233,0.0311,0.0269,0.0278,0.0291,0.032,0.0322,0.0327,0.033,0.0331,0.0332,0.0333,0.0334,0.0336,0.0318,0.0335,0.0335,0.0343,0.0344,0.0344,0.0298,0,0,0,0,0,0,0.0219,0.0233,0.0251,0.0271,0.0281,0.0319,0.0321,0.0322,0.0331,0.0331,0.0334,0.0334,0.0333,0.0335,0.0336,0.0319,0.0336,0.0343,0.0343,0.0344,0.03,0.0297,0.0294,0,0,0,0,0,0.0215,0.0243,0.0253,0.0263,0.0308,0.032,0.0322,0.0328,0.0331,0.0332,0.0334,0.0334,0.0336,0.0335,0.0336,0.0319,0.0343,0.0343,0.0344,0.0301,0.0298,0.0295,0,0,0,0,0,0,0.0208,0.0247,0.0257,0.0299,0.0307,0.032,0.0325,0.0331,0.0334,0.0332,0.0335,0.0335,0.0329,0.0338,0.0337,0.0324,0.034,0.034,0.0307,0.0304,0.0301,0.0287,0.0336,0,0,0,0,0,0.0215,0.0244,0.0268,0.0299,0.0303,0.0314,0.032,0.0324,0.033,0.0332,0.0332,0.0334,0.0331,0.0329,0.033,0.0326,0.0344,0.0317,0.0314,0.0312,0.0302,0.0322,0.032,0.0344,0.0344,0.0344,0,0,0.0216,0.0246,0.026,0.0298,0.0305,0.0292,0.0317,0.0325,0.0306,0.0331,0.0311,0.0325,0.0329,0.0318,0.0316,0.0322,0.0317,0.0312,0.0309,0.0301,0.0322,0.032,0.0318,0.0344,0.0344,0.0344,0,0,0.0215,0.0262,0.0269,0.0272,0.0286,0.0288,0.029,0.0299,0.0297,0.0289,0.0297,0.0305,0.0301,0.0299,0.0297,0.0285,0.0303,0.0287,0.0256,0.0276,0.0274,0.0272,0.03,0.0302,0.0284,0.0283,0.0283,0,0.0214,0.023,0.0269,0.0263,0.0253,0.028,0.0255,0.0258,0.0264,0.0261,0.0275,0.0278,0.0286,0.0269,0.0263,0.0275,0.0295,0.0264,0.0271,0.027,0.0269,0.0298,0.03,0.0281,0.0282,0.0282,0.0282,0,0.0198,0.0204,0.0207,0.0205,0.02,0.0192,0.0191,0.0188,0.0194,0.0199,0.0198,0.0221,0.0225,0.0229,0.0238,0.0232,0.0252,0.0265,0.0275,0.0263,0.0296,0.0298,0.0278,0.0279,0.028,0.028,0,0,0.0205,0.0196,0.0193,0.0169,0.0166,0.0157,0.013,0.0115,0.0099,0.012,0.0106,0.0117,0.0153,0.0155,0.0179,0.0194,0.0211,0.0223,0.0225,0.0243,0.0262,0.0249,0.0252,0.0225,0.0225,0.0225,0.029,0,0.0172,0.0141,0.0143,0.0089,0.0065,0.0068,0.0037,0.0031,0.0039,0.0038,0.0076,0.008,0.0117,0.0128,0.0149,0.0195,0.0215,0.0193,0.0277,0.028,0.0263,0.0253,0.0225,0.0292,0.0293,0.0293,0.0294,0,0.0144,0.0126,0.0074,0.0024,0.0012,-0.0014,-0.0052,-0.0069,-0.0058,-0.0048,-0.0022,0.0015,0.0046,0.0083,0.0155,0.0141,0.0194,0.0234,0.0238,0.024,0.0271,0.0306,0.0299,0.0298,0.0298,0.0298,0.0297,0,0.012,0.0071,0.0027,0.0011,-0.0034,-0.0059,-0.0079,-0.0088,-0.0104,-0.0084,-0.0082,-0.0036,-0.0003,0.0062,0.0155,0.0155,0.024,0.0253,0.0293,0.0294,0.0307,0.0308,0.03,0.03,0.0299,0.0299,0.0299,0,0.0085,0.0047,0.0015,-0.0008,-0.0067,-0.0083,-0.0129,-0.0138,-0.0144,-0.0162,-0.0111,-0.0105,-0.0006,0.0058,0.0139,0.0227,0.0235,0.0282,0.0303,0.0289,0.0287,0.031,0.031,0.0302,0.0301,0.0301,0.03,0,0.0066,0.0045,-0.0006,-0.0057,-0.0075,-0.0109,-0.0159,-0.0189,-0.0185,-0.0202,-0.0196,-0.0146,-0.0066,0.0034,0.0147,0.0205,0.029,0.0321,0.0304,0.0325,0.0335,0.0333,0.036,0.036,0.036,0.0359,0.0359,0,0.0051,0.0031,-0.0028,-0.006,-0.0082,-0.0131,-0.017,-0.0198,-0.023,-0.0228,-0.0241,-0.0171,-0.0126,0.0031,0.0135,0.028,0.0301,0.0346,0.0328,0.0319,0.0339,0.0336,0.0333,0.0359,0.0359,0.0359,0.0359,0,0.0032,0.0023,-0.0017,-0.0072,-0.012,-0.0186,-0.0239,-0.0265,-0.0295,-0.0299,-0.0275,-0.0196,-0.0107,0.0019,0.0136,0.024,0.0312,0.0346,0.0346,0.0329,0.032,0.0338,0.0336,0.0359,0.0359,0.0359,0.0359,0,0.0029,-0.0001,-0.0035,-0.0083,-0.0148,-0.0213,-0.025,-0.0291,-0.0318,-0.0322,-0.031,-0.0207,-0.0148,-0.0001,0.0106,0.0204,0.0222,0.0249,0.0255,0.0257,0.0204,0.0175,0.0181,0,0,0,0,0,0.003,0.0005,-0.0044,-0.0108,-0.0172,-0.0207,-0.0287,-0.0321,-0.0352,-0.0343,-0.0328,-0.0246,-0.0093,-0.0024,0.0072,0.0103,0.024,0.0217,0.0275,0.0358,0.0358,0.0311,0,0,0,0,0,0,0.0019,-0.0013,-0.0036,-0.0102,-0.0147,-0.023,-0.0279,-0.0312,-0.0314,-0.0321,-0.0239,-0.0215,-0.0064,-0.0132,0.0084,0.0111,0.0159,0.0284,0.0286,0.0358,0.0358,0.0358,0.031,0,0,0,0,0]}]]